Location: Hamburg
(53.5511°N, 9.9937°E)
Time: 17:23:40
(UTC+02:00)

ISS - Pass Details

Date: 17 March 2026
Orbit: 416 x 425 km, 51.6° (Epoch: 19 April)

Event Time Altitude Azimuth Distance (km) Brightness Sun altitude
Rises 21:22:46 0° 272° (W) 2,387 0.9 -25.2°
Reaches altitude 10° 21:24:54 10° 268° (W) 1,519 -0.3 -25.4°
Enters shadow 21:26:16 22° 262° (W) 987 -1.5 -25.6°
